Regional Weather Roundup
Issued by NWS

Home | Current Version | Previous Version | Graphics & Text | Print | Product List | Glossary On
Versions: 1 2 3 4 5 6 7 8 9 10 11 12 13 14 15 16 17 18 19 20 21 22 23 24 25 26 27 28 29 30 31 32 33 34 35 36 37 38 39 40 41 42 43 44 45 46 47 48 49 50
000
ASUS45 KSLC 042010
RWRUT

UTAH REGIONAL WEATHER ROUNDUP
NATIONAL WEATHER SERVICE SALT LAKE CITY UT
200 PM MDT SAT JUL 04 2015

UTZ001>011-023>025-042100-

NORTHERN UTAH

CITY           SKY/WX    TMP DP  RH WIND       PRES   REMARKS
BRIGHAM CITY   MOSUNNY   95  32  10 S6        29.93S HX  90
HILL AFB       MOSUNNY   93  47  20 SW10      29.98F HX  90
LOGAN          SUNNY     95  38  13 CALM      29.93F HX  90
OGDEN          MOSUNNY   94  45  18 MISG      29.93F HX  90
PROVO AIRPORT  PTSUNNY   93  45  18 VRB5      29.96F
SALT LAKE CITY PTSUNNY   94  50  22 S8        29.92F HX  91
VERNAL         MOSUNNY   90  44  20 N6        30.00F
WENDOVER       MOSUNNY   93  45  18 E10       29.93S
HEBER CITY     PTSUNNY   90  43  19 NW3       30.04F
WEST JORDAN    SUNNY     93  46  20 SE14      29.96F

$$

UTZ012>022-026-027-042100-

SOUTHERN/CENTRAL UTAH

CITY           SKY/WX    TMP DP  RH WIND       PRES   REMARKS
BLANDING       SUNNY     86  49  27 S5        30.18F
BRYCE CANYON   CLOUDY    74  52  46 SW13      30.28R
CEDAR CITY     CLOUDY    80  47  31 SW14G20   30.12R THUNDER
DELTA          MOSUNNY   94  38  14 W8        29.96F
HANKSVILLE     MOSUNNY   95  45  17 SE3       29.97F HX  91
MILFORD        PTSUNNY   92  46  20 SW13G26   30.01F
MOAB/CYNLANDS  SUNNY     94  50  22 VRB7      29.95F HX  91
PRICE          PTSUNNY   89  46  22 VRB5      30.07F
ST GEORGE      MOCLDY    91  50  24 W14       29.95F
KANAB          CLOUDY    86  54  32 W8        30.12F

$$

REGIONAL REPORTS     COLORADO/ARIZONA

CITY           SKY/WX    TMP DP  RH WIND       PRES   REMARKS
CRAIG, CO      MOSUNNY   90  45  21 S10G17    30.08F
GRAND JUNCTION SUNNY     91  47  21 S6        29.99F
RIFLE          MOSUNNY   88  50  27 CALM      30.05F
MONTROSE       MOSUNNY   86  49  27 W7        30.10F
CORTEZ         SUNNY     92  46  20 S7        30.10F
PAGE, AZ       CLOUDY    87  54  32 VRB7      30.02F
GRAND CANYON   CLOUDY    74  51  44 S6        30.22F
KINGMAN        CLOUDY    92  48  22 W15       30.00F
FLAGSTAFF      PTSUNNY   75  55  49 S8        30.23F

$$

REGIONAL REPORTS    NEVADA/IDAHO/WYOMING

CITY           SKY/WX    TMP DP  RH WIND       PRES   REMARKS
LAS VEGAS, NV  PTSUNNY   98  43  15 VRB6      29.84S HX  94
ELY            CLOUDY    80  40  23 SW22G31   30.14F
ELKO           PTSUNNY   93  44  18 SW10      29.98F
POCATELLO, ID  SUNNY     93  44  18 W13       29.95F
BURLEY         MOSUNNY   90  44  20 W10       29.92F
EVANSTON, WY   PTSUNNY   85  42  22 W12G17    30.16S
ROCK SPRINGS   MOSUNNY   85  40  20 W16G23    30.11F
KEMMERER       MOSUNNY  N/A N/A N/A NW8G21    30.16F

$$


USA.gov is the U.S. government's official web portal to all federal, state and local government web resources and services.